Location: Unspecified
(43.4680°N, 87.1740°E)
Time: 23:03:30
(UTC+00:00)

Meteor 1-21 Rocket - Pass Details

Date: 17 January 2020
Orbit: 834 x 907 km, 81.2° (Epoch: 18 February)

Event Time Altitude Azimuth Distance (km) Brightness Sun altitude
Rises 13:18:05 0° 194° (SSW) 3,371 7.6 -24.2°
Reaches altitude 10° 13:20:29 10° 197° (SSW) 2,446 6.9 -24.7°
Maximum altitude 13:26:00 72° 281° (W) 893 4.4 -25.7°
Enters shadow 13:30:57 14° 5° (N) 2,228 6.3 -26.6°
